#timestamp,LO_Frequency,Hit,StdDev 
1675638015.1,286046993.5,N
1675638035.9,286047000.8,N
1675638055.7,286046993.3,N
1675638075.6,286046988.8,N
1675638095.4,286046985.3,N
1675638115.2,286046988.6,N
1675638135.1,286046990.6,N
1675638136.0,286046990.6,N
1675638155.8,286046994.9,N
1675638175.7,286046994.9,N
1675638195.5,286046991.4,N
1675638215.3,286046986.7,N
1675638235.2,286046980.9,Y
1675638255.0,286046990.3,P
1675638255.9,286046990.3,P
1675638275.7,286046993.7,N
1675638295.6,286046996.0,N
1675638315.4,286046999.6,N
1675638335.3,286046996.7,N
1675638355.1,286046994.0,N
1675638356.0,286046994.0,N
1675638375.8,286046996.4,N
1675638395.7,286046997.7,N
1675638415.5,286046997.3,N
1675638435.3,286046993.4,N
1675638455.2,286046994.6,N
1675638475.0,286046991.4,Y
1675638475.9,286046991.4,P
1675638495.8,286046994.6,P
1675638515.6,286046992.3,P
1675638535.4,286046990.1,Y
1675638555.3,286047001.6,P
1675638575.1,286046998.6,N
1675638595.8,286047008.9,N
1675638615.7,286047006.3,N
1675638635.5,286047008.7,N
1675638655.4,286047012.6,N
1675638675.2,286047008.4,N
1675638695.0,286047009.1,N
1675638695.9,286047009.1,N
1675638715.8,286047001.3,N
1675638735.6,286047005.5,N
1675638755.4,286046996.0,N
1675638775.3,286046994.7,N
1675638795.1,286046995.3,N
1675638815.9,286047000.2,N
1675638835.7,286046998.0,N
1675638855.5,286047000.3,N
1675638875.4,286046997.8,N
1675638895.2,286046997.1,N
1675638915.0,286046999.2,N
1675638915.9,286046999.2,N
1675638935.8,286047000.7,N
1675638955.6,286046995.1,N
1675638975.5,286046996.0,N
1675638995.3,286046997.0,N
1675639015.1,286046996.0,N
1675639035.9,286046987.7,N
1675639055.7,286046983.9,N
1675639075.5,286046989.8,N
1675639095.4,286046987.4,N
1675639115.2,286046983.0,N
1675639135.0,286046990.5,N
1675639136.0,286046990.5,N
1675639155.8,286046996.2,N
1675639175.6,286046997.5,N
1675639195.5,286047000.4,N
1675639215.3,286047000.8,N
1675639235.1,286046997.3,N
1675639255.9,286046998.1,N
1675639275.7,286046993.2,N
1675639295.6,286046988.8,N
1675639315.4,286046990.0,N
1675639335.2,286046993.1,N
1675639355.1,286046998.3,N
1675639356.0,286046998.3,N
1675639375.8,286046996.0,N
1675639395.6,286046995.0,N
1675639415.5,286046996.5,N
1675639435.3,286047000.3,N
1675639455.1,286047005.2,N
1675639475.9,286047010.0,N
1675639495.7,286047007.3,N
1675639515.6,286047006.3,N
1675639535.4,286047004.1,N
1675639555.2,286047004.1,N
1675639575.1,286046998.3,N
1675639576.0,286046998.3,N
1675639595.8,286046994.2,N
1675639615.7,286046991.4,N
1675639635.5,286046986.2,N
1675639655.3,286046986.9,N
1675639675.2,286046995.4,N
1675639695.0,286046997.8,N
1675639695.9,286046997.8,N
1675639715.8,286047002.3,N
1675639735.6,286047001.1,N
1675639755.4,286047001.6,N
1675639775.3,286047004.4,N
1675639795.1,286046996.6,N
1675639815.9,286046998.0,N
1675639835.7,286046990.3,N
1675639855.5,286046984.6,N
1675639875.4,286046981.1,Y
1675639895.2,286046979.8,P
1675639915.1,286046982.0,N
1675639916.0,286046982.0,N
1675639935.8,286046989.8,N
1675639955.6,286047002.1,N
1675639975.5,286046998.3,N
1675639995.3,286047012.0,N
1675640015.2,286047005.1,N
1675640035.0,286047007.4,N
1675640035.9,286047007.4,N
1675640055.8,286047000.1,N
1675640075.6,286046996.9,N
1675640095.4,286046995.5,N
1675640115.3,286046994.5,N
1675640135.1,286046991.0,N
1675640155.8,286046988.6,N
1675640175.7,286046986.9,N
1675640195.5,286046991.1,N
1675640215.4,286046996.2,N
1675640235.2,286046995.6,N
1675640255.0,286046997.6,N
1675640255.9,286046997.6,N
1675640275.8,286047007.9,N
1675640295.6,286047015.0,N
1675640315.4,286047023.5,N
1675640335.3,286047015.5,N
1675640355.1,286047013.9,N
1675640375.9,286047011.2,N
1675640395.7,286047011.8,N
1675640415.5,286047009.9,N
1675640435.4,286047008.6,N
1675640455.2,286047002.2,N
1675640475.0,286046994.4,N
1675640475.9,286046994.4,N
1675640495.8,286046994.7,N
1675640515.6,286046996.1,N
1675640535.5,286046997.1,N
1675640555.3,286047000.2,N
1675640575.1,286046981.3,N
1675640595.9,286046995.2,N
1675640615.7,286047003.7,N
1675640635.5,286047006.6,N
1675640655.4,286047007.5,N
1675640675.2,286047017.1,N
1675640695.0,286047016.2,N
1675640695.9,286047016.2,N
1675640715.8,286047016.4,N
1675640735.6,286047012.4,N
1675640755.5,286047010.6,N
1675640775.3,286047002.0,N
1675640795.1,286047004.0,N
1675640815.9,286047005.8,N
1675640835.7,286047007.3,N
1675640855.5,286047005.9,N
1675640875.4,286047002.0,N
1675640895.2,286047009.2,N
1675640915.1,286047003.4,N
1675640916.0,286047003.4,N
1675640935.8,286047003.6,N
1675640955.6,286046999.1,N
1675640975.5,286047003.5,N
1675640995.3,286047002.0,N
1675641015.1,286047001.5,N
1675641035.9,286047003.3,N
1675641055.7,286047014.0,N
1675641075.6,286047017.6,N
1675641095.4,286047024.0,Y
1675641115.2,286047019.7,P
1675641135.1,286047015.9,N
1675641136.0,286047015.9,N
1675641155.8,286047011.9,N
1675641175.6,286047009.5,N
1675641195.5,286047014.1,Y
1675641215.3,286047006.0,P
1675641235.2,286047004.1,N
1675641255.9,286047010.5,N
1675641275.7,286047016.0,Y
1675641295.6,286047007.6,P
1675641315.4,286047005.5,P
1675641335.3,286047008.8,P
1675641355.1,286047013.8,Y
1675641356.0,286047013.8,P
1675641375.8,286047006.2,N
1675641395.7,286047010.8,P
1675641415.5,286047003.7,N
1675641435.3,286046999.5,N
1675641455.2,286046999.1,N
1675641475.0,286046994.6,N
1675641476.0,286046994.6,N
1675641495.8,286046988.5,N
1675641515.6,286046984.1,N
1675641535.5,286046986.6,N
1675641555.3,286046992.2,N
1675641575.1,286046999.4,N
1675641595.9,286047000.3,N
